Simultaneous Nadir Overpasses (SNOs) Predictions

Prediction of SNOs between NOAA-19 and NPP Satellite Orbit:

Table of predicted SNOs for the next 14.0 days since TLE Epoch: 4/4/2014
Index Date (NOAA-19) Time (NOAA-19) Lat,Lon (NOAA-19) SZA (NOAA-19 ) Date (NPP) Time (NPP) Lat,Lon (NPP) SZA (NPP ) Distance(km) Time Diff (sec)
1 04/12/2014 22:19:36 81.00, 151.36 75.85 04/12/2014 22:20:43 81.00, 151.29 75.82 1.12 67
2 04/12/2014 23:10:41 -80.99, -41.38 104.18 04/12/2014 23:11:28 -81.00, -41.44 104.19 1.12 47
3 04/13/2014 00:01:40 81.00, 125.76 75.83 04/13/2014 00:02:13 80.99, 125.94 75.79 3.16 33
4 04/13/2014 00:52:44 -80.99, -66.61 104.24 04/13/2014 00:52:57 -80.98, -66.43 104.28 3.23 13
5 04/13/2014 01:43:42 80.98, 100.90 75.71 04/13/2014 01:43:42 80.98, 100.95 75.70 0.87 0
6 04/13/2014
